Retour au catalogue

METEOR 2-6 DEB

ActifPO
NORAD 45501·DEBRIS·🇷🇺 Russia

Lancé Sep 9, 1980 depuis Plesetsk Cosmodrome

Loading…

Prochains Passages (prochaines 24 heures)

TLE

FraisSource: Space-Track

Époque: Sep 13, 2026, 10:50 UTC

1 45501U 80073V   26256.45168138  .00002967  00000-0  98935-3 0  9991
2 45501  81.2178 303.6313 0033492  51.9644 308.4556 14.37059315582973

Suivez METEOR 2-6 DEB en temps réel avec AllMySat

Download on the App Store